Location: Bruderhein
(53.8035°N, 112.9265°W)
Time: 09:57:31
(UTC+00:00)

deb Agena D - Pass Details

Date: 17 December 2023
Orbit: 760 x 888 km, 99.8° (Epoch: 04 March)

Event Time Altitude Azimuth Distance (km) Brightness Sun altitude
Rises 14:49:17 0° 183° (S) 3,448 ? -7.5°
Reaches altitude 10° 14:51:50 10° 190° (S) 2,499 ? -7.2°
Maximum altitude 14:57:03 41° 260° (W) 1,206 ? -6.5°
Drops below altitude 10° 15:02:09 10° 331° (NNW) 2,438 ? -5.9°
Enters shadow 15:04:35 - 339° (NNW) 3,342 ? -5.6°
